Location: Allos
(44.2333°N, 6.6333°E)
Time: 21:32:24
(UTC+00:00)

Cosmos 1821 Rocket - Pass Details

Date: 20 April 2021
Orbit: 946 x 1003 km, 82.9° (Epoch: 16 May)

Event Time Altitude Azimuth Distance (km) Brightness Sun altitude
Rises 00:49:27 0° 359° (N) 3,702 8.0 -31.6°
Reaches altitude 10° 00:52:16 10° 9° (N) 2,758 7.2 -31.4°
Maximum altitude 00:57:54 33° 72° (ENE) 1,621 5.4 -30.9°
Enters shadow 01:00:58 22° 117° (ESE) 2,030 5.6 -30.7°
